| time (UTC) | temp F | wind direction | speed MPH | gust MPH | rain 1hr in | rain 24hr in | rain mn in | humidity % | barometer mb |
| 20260903194533 | 96 | 263 | 7.0 | 16.0 | 0.00 | 0.13 | 0.00 | 29 | 1013.4 |
| 20260903193030 | 97 | 271 | 10.0 | 13.0 | 0.00 | 0.13 | 0.00 | 27 | 1013.5 |
| 20260903191541 | 95 | 288 | 8.0 | 12.0 | 0.00 | 0.13 | 0.00 | 30 | 1013.7 |
| 20260903190025 | 96 | 271 | 4.0 | 12.0 | 0.00 | 0.13 | 0.00 | 29 | 1014.0 |
| 20260903184529 | 96 | 267 | 10.0 | 14.0 | 0.00 | 0.13 | 0.00 | 30 | 1014.4 |
| 20260903183018 | 96 | 302 | 7.0 | 14.0 | 0.00 | 0.13 | 0.00 | 29 | 1014.8 |
| 20260903181514 | 95 | 198 | 2.0 | 8.0 | 0.00 | 0.13 | 0.00 | 34 | 1015.1 |
| 20260903180011 | 95 | 265 | 4.0 | 10.0 | 0.00 | 0.13 | 0.00 | 31 | 1015.4 |
| 20260903174507 | 93 | 225 | 1.0 | 6.0 | 0.00 | 0.13 | 0.00 | 34 | 1015.7 |
| 20260903173011 | 93 | 229 | 3.0 | 9.0 | 0.00 | 0.13 | 0.00 | 36 | 1016.0 |
| 20260903171614 | 90 | 256 | 3.0 | 7.0 | 0.00 | 0.13 | 0.00 | 36 | 1016.2 |
| 20260903170056 | 90 | 244 | 1.0 | 4.0 | 0.00 | 0.13 | 0.00 | 38 | 1016.5 |
| 20260903164603 | 88 | 240 | 1.0 | 5.0 | 0.00 | 0.13 | 0.00 | 42 | 1016.6 |
| 20260903163050 | 87 | 351 | 1.0 | 4.0 | 0.00 | 0.13 | 0.00 | 43 | 1016.6 |
| 20260903161552 | 85 | 355 | 0.0 | 4.0 | 0.00 | 0.13 | 0.00 | 48 | 1016.6 |
| 20260903160044 | 84 | 360 | 4.0 | 8.0 | 0.00 | 0.13 | 0.00 | 51 | 1016.7 |
| 20260903154542 | 82 | 355 | 6.0 | 9.0 | 0.00 | 0.13 | 0.00 | 54 | 1016.6 |
| 20260903153038 | 81 | 9 | 6.0 | 12.0 | 0.00 | 0.13 | 0.00 | 55 | 1016.6 |
| 20260903151534 | 79 | 329 | 5.0 | 12.0 | 0.00 | 0.13 | 0.00 | 59 | 1016.6 |
| 20260903150034 | 78 | 342 | 7.0 | 10.0 | 0.00 | 0.13 | 0.00 | 59 | 1016.6 |
| 20260903144528 | 77 | 344 | 7.0 | 11.0 | 0.00 | 0.13 | 0.00 | 59 | 1016.6 |
| 20260903143045 | 77 | 290 | 7.0 | 9.0 | 0.00 | 0.13 | 0.00 | 61 | 1016.6 |
| 20260903141519 | 76 | 360 | 7.0 | 10.0 | 0.00 | 0.13 | 0.00 | 63 | 1016.6 |
| 20260903140022 | 75 | 355 | 7.0 | 12.0 | 0.00 | 0.13 | 0.00 | 64 | 1016.7 |
| 20260903134510 | 74 | 340 | 8.0 | 11.0 | 0.00 | 0.13 | 0.00 | 64 | 1016.6 |
| 20260903133009 | 74 | 326 | 5.0 | 11.0 | 0.00 | 0.13 | 0.00 | 65 | 1016.5 |
| 20260903131504 | 73 | 321 | 3.0 | 9.0 | 0.00 | 0.13 | 0.00 | 65 | 1016.3 |
| 20260903130000 | 73 | 319 | 1.0 | 5.0 | 0.00 | 0.13 | 0.00 | 65 | 1016.0 |
| 20260903124559 | 73 | 347 | 3.0 | 8.0 | 0.00 | 0.13 | 0.00 | 66 | 1015.8 |
| 20260903123057 | 73 | 297 | 4.0 | 12.0 | 0.00 | 0.13 | 0.00 | 64 | 1015.7 |
| 20260903121555 | 74 | 360 | 8.0 | 11.0 | 0.00 | 0.13 | 0.00 | 63 | 1015.5 |
| 20260903120055 | 73 | 302 | 5.0 | 8.0 | 0.00 | 0.13 | 0.00 | 64 | 1015.5 |
| 20260903114555 | 73 | 332 | 2.0 | 10.0 | 0.00 | 0.13 | 0.00 | 64 | 1015.5 |
| 20260903113054 | 73 | 319 | 6.0 | 12.0 | 0.00 | 0.13 | 0.00 | 64 | 1015.4 |
| 20260903111603 | 73 | 360 | 8.0 | 12.0 | 0.00 | 0.13 | 0.00 | 64 | 1015.3 |
| 20260903110053 | 74 | 360 | 10.0 | 14.0 | 0.00 | 0.13 | 0.00 | 64 | 1015.2 |
| 20260903104653 | 73 | 325 | 6.0 | 11.0 | 0.00 | 0.13 | 0.00 | 64 | 1015.2 |
| 20260903103051 | 73 | 315 | 4.0 | 8.0 | 0.00 | 0.13 | 0.00 | 65 | 1015.2 |
| 20260903101556 | 73 | 319 | 7.0 | 11.0 | 0.00 | 0.13 | 0.00 | 65 | 1015.2 |
| 20260903100053 | 74 | 360 | 8.0 | 13.0 | 0.00 | 0.13 | 0.00 | 64 | 1015.2 |
| 20260903094551 | 74 | 330 | 7.0 | 12.0 | 0.00 | 0.13 | 0.00 | 64 | 1015.2 |
| 20260903093052 | 74 | 330 | 5.0 | 11.0 | 0.00 | 0.13 | 0.00 | 64 | 1015.2 |
| 20260903091545 | 74 | 338 | 10.0 | 13.0 | 0.00 | 0.13 | 0.00 | 62 | 1015.3 |
| 20260903090044 | 74 | 323 | 7.0 | 11.0 | 0.00 | 0.13 | 0.00 | 62 | 1015.2 |
| 20260903084543 | 74 | 360 | 8.0 | 11.0 | 0.00 | 0.13 | 0.00 | 61 | 1015.3 |
| 20260903083047 | 75 | 355 | 10.0 | 13.0 | 0.00 | 0.13 | 0.00 | 59 | 1015.2 |
| 20260903081544 | 75 | 335 | 5.0 | 11.0 | 0.00 | 0.13 | 0.00 | 60 | 1015.3 |
| 20260903080040 | 75 | 360 | 9.0 | 15.0 | 0.00 | 0.13 | 0.00 | 60 | 1015.3 |
| 20260903074537 | 76 | 333 | 6.0 | 10.0 | 0.00 | 0.13 | 0.00 | 59 | 1015.4 |
| 20260903073136 | 76 | 306 | 5.0 | 8.0 | 0.00 | 0.13 | 0.00 | 57 | 1015.5 |
| 20260903071534 | 75 | 336 | 2.0 | 9.0 | 0.00 | 0.13 | 0.00 | 59 | 1015.5 |
| 20260903070034 | 75 | 334 | 4.0 | 12.0 | 0.00 | 0.13 | 0.00 | 61 | 1015.6 |
| 20260903064535 | 75 | 360 | 9.0 | 14.0 | 0.00 | 0.13 | 0.00 | 61 | 1015.6 |
| 20260903063031 | 75 | 325 | 8.0 | 13.0 | 0.00 | 0.13 | 0.00 | 63 | 1015.6 |
| 20260903061531 | 75 | 326 | 7.0 | 11.0 | 0.00 | 0.13 | 0.00 | 63 | 1015.6 |
| 20260903060028 | 75 | 293 | 5.0 | 10.0 | 0.00 | 0.13 | 0.00 | 64 | 1015.5 |
| 20260903054526 | 76 | 317 | 4.0 | 8.0 | 0.00 | 0.13 | 0.00 | 65 | 1015.5 |
| 20260903053023 | 76 | 360 | 9.0 | 13.0 | 0.00 | 0.13 | 0.00 | 63 | 1015.6 |
| 20260903051521 | 77 | 297 | 10.0 | 13.0 | 0.00 | 0.13 | 0.00 | 63 | 1015.6 |
| 20260903050019 | 77 | 301 | 8.0 | 11.0 | 0.00 | 0.13 | 0.00 | 64 | 1015.5 |
| 20260903044521 | 76 | 360 | 7.0 | 12.0 | 0.00 | 0.13 | 0.00 | 65 | 1015.5 |
| 20260903043018 | 77 | 312 | 7.0 | 11.0 | 0.00 | 0.13 | 0.00 | 65 | 1015.5 |
| 20260903041517 | 77 | 336 | 8.0 | 13.0 | 0.00 | 0.13 | 0.00 | 65 | 1015.5 |
| 20260903040016 | 77 | 360 | 7.0 | 11.0 | 0.00 | 0.13 | 0.00 | 64 | 1015.5 |
| 20260903034514 | 77 | 340 | 9.0 | 13.0 | 0.00 | 0.13 | 0.00 | 61 | 1015.4 |
| 20260903033015 | 77 | 360 | 5.0 | 9.0 | 0.00 | 0.13 | 0.00 | 65 | 1015.3 |
| 20260903031511 | 77 | 360 | 7.0 | 11.0 | 0.00 | 0.13 | 0.00 | 65 | 1015.2 |
| 20260903030011 | 77 | 360 | 10.0 | 14.0 | 0.00 | 0.13 | 0.00 | 66 | 1015.0 |
| 20260903024508 | 78 | 327 | 8.0 | 13.0 | 0.00 | 0.13 | 0.00 | 62 | 1014.7 |
| 20260903023008 | 79 | 321 | 9.0 | 14.0 | 0.00 | 0.13 | 0.00 | 55 | 1014.5 |
| 20260903021508 | 80 | 319 | 9.0 | 13.0 | 0.00 | 0.13 | 0.00 | 51 | 1014.4 |
| 20260903020007 | 80 | 317 | 11.0 | 15.0 | 0.00 | 0.13 | 0.00 | 52 | 1014.4 |
| 20260903014505 | 80 | 348 | 9.0 | 13.0 | 0.00 | 0.13 | 0.00 | 53 | 1014.3 |
| 20260903013005 | 81 | 330 | 8.0 | 11.0 | 0.00 | 0.13 | 0.00 | 50 | 1014.2 |
| 20260903011503 | 81 | 355 | 10.0 | 12.0 | 0.00 | 0.13 | 0.00 | 48 | 1014.0 |
| 20260903010002 | 81 | 360 | 9.0 | 12.0 | 0.00 | 0.13 | 0.00 | 48 | 1014.1 |
| 20260903004559 | 81 | 355 | 8.0 | 14.0 | 0.00 | 0.13 | 0.00 | 49 | 1014.2 |
| 20260903003056 | 80 | 346 | 8.0 | 13.0 | 0.00 | 0.13 | 0.00 | 54 | 1014.5 |
| 20260903001553 | 79 | 360 | 8.0 | 15.0 | 0.00 | 0.13 | 0.00 | 55 | 1014.8 |
| 20260903000051 | 78 | 9 | 7.0 | 14.0 | 0.00 | 0.13 | 0.00 | 63 | 1014.9 |
| 20260902234559 | 79 | 321 | 13.0 | 17.0 | 0.00 | 0.13 | 0.00 | 59 | 1014.8 |
| 20260902233045 | 80 | 355 | 13.0 | 24.0 | 0.00 | 0.13 | 0.00 | 54 | 1015.2 |
| 20260902230048 | 80 | 347 | 21.0 | 28.0 | 0.13 | 0.13 | 0.13 | 60 | 1014.2 |
| 20260902224544 | 77 | 355 | 20.0 | 27.0 | 0.11 | 0.11 | 0.11 | 70 | 1014.1 |
| 20260902223042 | 80 | 150 | 4.0 | 14.0 | 0.08 | 0.08 | 0.08 | 62 | 1014.1 |
| 20260902221541 | 84 | 179 | 15.0 | 35.0 | 0.04 | 0.04 | 0.04 | 51 | 1014.4 |
| 20260902220042 | 96 | 210 | 1.0 | 4.0 | 0.00 | 0.00 | 0.00 | 29 | 1013.7 |
| 20260902214540 | 99 | 348 | 1.0 | 6.0 | 0.00 | 0.00 | 0.00 | 25 | 1013.8 |
| 20260902213037 | 98 | 360 | 2.0 | 10.0 | 0.00 | 0.00 | 0.00 | 26 | 1013.9 |
| 20260902211535 | 100 | 267 | 6.0 | 12.0 | 0.00 | 0.00 | 0.00 | 24 | 1014.1 |
| 20260902210032 | 102 | 235 | 2.0 | 9.0 | 0.00 | 0.00 | 0.00 | 24 | 1014.4 |
| 20260902204528 | 99 | 360 | 6.0 | 9.0 | 0.00 | 0.00 | 0.00 | 27 | 1014.7 |
| 20260902203026 | 98 | 360 | 8.0 | 13.0 | 0.00 | 0.00 | 0.00 | 27 | 1015.0 |
| 20260902201524 | 98 | 334 | 5.0 | 8.0 | 0.00 | 0.00 | 0.00 | 26 | 1015.3 |
| 20260902200020 | 98 | 264 | 4.0 | 14.0 | 0.00 | 0.00 | 0.00 | 27 | 1015.6 |